Meteopurmerend
purmerend
Purmerend - Baaienwijk



My webcam  My webcam


waarschuwing voor Onweer Meer informatie blitzortung!


Regen radar Meer informatie rain snow radar


Bezoek onze andere website:

CandyAppleRed WebdesignWebdesign Purmerend Candy Apple Red

MeteopurmerendBlog

Template documentation
and downloads



Onweer van: 26-07-2021 13:00 tot: 21:00 waarschuwing voor: Onweer niveau: Geel info button
Enkele onweersbuien, lokaal met hagel en veel neerslag in korte tijd.Kans op blikseminslag, hagel en veel neerslag in korte tijd.Verkeer en buitenactiviteiten kunnen hinder ondervinden.Mijd open water en open gebied, schuil niet onder bomen.Volg weerberichten en waarschuwingen.

15 daagse weersverwachting Trollhättan (SE)

  • Overzicht
  • Per uur
  • 15 dagen
  • Extra
  • Vergelijk
  • Kaarten
  • Dagkaart
  • Meer »
  • Info
  • Statistieken
  • Directe link
    Temp 6h Neerslag Wind  
 04:54     21:43    Daglengte: 16:49 Vandaag
20:00
23°
 
3
 04:56     21:41    Daglengte: 16:45 Morgen
02:00
19°
 
2
08:00
18°
13.4 mm
3
14:00
22°
29.5 mm
3
warningclass
20:00
21°
22.8 mm
1
warningclass
 04:58     21:39    Daglengte: 16:41 Woensdag 28 Jul
02:00
17°
 
2
08:00
18°
 
3
14:00
21°
37.8 mm
4
20:00
19°
37.7 mm
3
 05:00     21:36    Daglengte: 16:36 Donderdag 29 Jul
02:00
16°
 
3
08:00
17°
34.4 mm
4
14:00
19°
56.5 mm
6
Locatie info
Region: Västra Götalands län
Latitude: 58.2831°N
Longitude: 12.2873°E
49 masl
Postcode: 461 34
Temp/Neerslag /Baro Onweer/Dauwpunt
    Temp Baro 1h Neerslag Dauwpunt Wind UV Bewolking  
 04:54     21:43    Daglengte: 16:49 Vandaag
17:00
23°
1013.4 hPa
48%
21.0°
3
Windvlaag: 3.3 m/s
78%
18:00
23°
1013.3 hPa
69%
21.8°
2
Windvlaag: 5.6 m/s
79%
19:00
23°
1012.9 hPa
17%
21.5°
2
Windvlaag: -1.1 m/s
73%
20:00
23°
1012.7 hPa
19%
21.5°
3
Windvlaag: 1.4 m/s
85%
21:00
22°
1012.8 hPa
21%
21.0°
2
Windvlaag: 1.7 m/s
83%
22:00
21°
1012.8 hPa
19%
20.6°
3
Windvlaag: 0 m/s
66%
23:00
20°
1012.7 hPa
19%
19.9°
3
Windvlaag: 0 m/s
66%
 04:56     21:41    Daglengte: 16:45 Morgen
00:00
20°
1012.5 hPa
14%
19.5°
2
Windvlaag: 0.6 m/s
65%
01:00
20°
1012.3 hPa
16%
19.5°
2
Windvlaag: 3.2 m/s
65%
02:00
19°
1012.2 hPa
21%
19.1°
2
Windvlaag: 4.7 m/s
65%
03:00
19°
1012.1 hPa
14%
18.8°
2
Windvlaag: 6 m/s
83%
04:00
19°
1011.9 hPa
14%
18.1°
2
Windvlaag: 6.6 m/s
72%
05:00
18°
1011.3 hPa
76%
17.7°
2
Windvlaag: 3.5 m/s
86%
06:00
18°
1010.9 hPa 4.3 mm
81%
17.6°
2
Windvlaag: -0.8 m/s
85%
07:00
18°
1010.6 hPa 4.5 mm
80%
17.5°
2
Windvlaag: -3 m/s
86%
08:00
18°
1010.4 hPa 4.5 mm
82%
17.9°
3
Windvlaag: -1.4 m/s
85%
09:00
19°
1010.0 hPa 4.4 mm
82%
18.2°
3
Windvlaag: -3.6 m/s
86%
10:00
20°
1009.9 hPa 4.4 mm
82%
18.7°
3
Windvlaag: -2.5 m/s
86%
11:00
20°
1009.6 hPa 4.5 mm
82%
19.2°
3
Windvlaag: -1.5 m/s
86% warningclass
12:00
20°
1009.4 hPa 5.2 mm
82%
19.2°
3
Windvlaag: -1.6 m/s
86% warningclass
13:00
21°
1009.0 hPa 5.5 mm
80%
19.4°
3
Windvlaag: 0.3 m/s
85% warningclass
14:00
22°
1008.5 hPa 5.4 mm
82%
20.0°
3
Windvlaag: 0.3 m/s
82% warningclass
15:00
22°
1008.3 hPa 5.5 mm
82%
20.2°
2
Windvlaag: 2.7 m/s
85% warningclass
16:00
21°
1008.2 hPa 5.9 mm
82%
20.0°
3
Windvlaag: 4 m/s
84% warningclass
17:00
21°
1008.1 hPa 5.8 mm
82%
20.0°
2
Windvlaag: 5.2 m/s
86% warningclass
18:00
21°
1007.9 hPa 5.6 mm
82%
19.6°
2
Windvlaag: 2.7 m/s
76% warningclass
19:00
21°
1007.7 hPa
82%
19.9°
1
Windvlaag: 2.6 m/s
31%
20:00
21°
1007.4 hPa
81%
20.0°
1
Windvlaag: 2.3 m/s
37%
21:00
20°
1007.4 hPa
79%
19.7°
1
Windvlaag: 1.7 m/s
27%
22:00
19°
1007.5 hPa
75%
18.9°
1
Windvlaag: 2 m/s
26%
23:00
19°
1007.6 hPa
72%
18.4°
1
Windvlaag: 3.9 m/s
28%
 04:58     21:39    Daglengte: 16:41 Woensdag 28 Jul
00:00
18°
1007.6 hPa
70%
18.1°
2
Windvlaag: 3.8 m/s
22%
01:00
18°
1007.3 hPa
20%
17.5°
2
Windvlaag: 2.6 m/s
32%
02:00
17°
1007.1 hPa
14%
17.2°
2
Windvlaag: 2.7 m/s
52%
03:00
17°
1006.7 hPa
14%
16.9°
2
Windvlaag: 2.8 m/s
55%
04:00
17°
1006.4 hPa
15%
16.9°
2
Windvlaag: 3 m/s
70%
05:00
17°
1006.2 hPa
18%
16.9°
2
Windvlaag: 3.1 m/s
62%
06:00
17°
1006.2 hPa
64%
17.1°
3
Windvlaag: 4.6 m/s
66%
07:00
18°
1006.1 hPa
27%
17.3°
3
Windvlaag: 5.2 m/s
63%
08:00
18°
1006.1 hPa
19%
17.6°
3
Windvlaag: 6.4 m/s
57%
09:00
19°
1006.0 hPa
15%
17.5°
3
Windvlaag: 6.7 m/s
65%
10:00
19°
1006.0 hPa
23%
17.0°
4
Windvlaag: 6.6 m/s
61%
11:00
20°
1005.6 hPa 9.4 mm
27%
15.8°
4
Windvlaag: 6.5 m/s
89%
12:00
20°
1005.4 hPa 9.3 mm
24%
15.6°
4
Windvlaag: 5.8 m/s
65%
13:00
21°
1005.1 hPa 9.8 mm
22%
14.8°
4
Windvlaag: 6.7 m/s
67%
14:00
21°
1004.6 hPa 9.4 mm
29%
14.5°
4
Windvlaag: 6.7 m/s
65%
15:00
21°
1004.5 hPa 9.5 mm
42%
14.4°
4
Windvlaag: 6.2 m/s
72%
16:00
21°
1004.4 hPa 9.7 mm
88%
14.0°
4
Windvlaag: 6.3 m/s
82%
17:00
21°
1004.1 hPa
90%
14.4°
4
Windvlaag: 5.4 m/s
93%
18:00
20°
1003.7 hPa 9.3 mm
87%
14.5°
3
Windvlaag: 4.9 m/s
76%
19:00
20°
1003.2 hPa 9.2 mm
50%
13.8°
4
Windvlaag: 5.6 m/s
49%
20:00
19°
1002.9 hPa
45%
13.5°
3
Windvlaag: 5.8 m/s
50%
21:00
18°
1002.9 hPa
38%
15.2°
3
Windvlaag: 5.1 m/s
38%
22:00
17°
1002.7 hPa
30%
15.9°
3
Windvlaag: 4.1 m/s
79%
23:00
17°
1002.5 hPa
21%
16.2°
2
Windvlaag: 3.9 m/s
79%
 05:00     21:36    Daglengte: 16:36 Donderdag 29 Jul
00:00
16°
1002.3 hPa
22%
15.6°
2
Windvlaag: 4.1 m/s
73%
01:00
16°
1002.0 hPa
22%
15.7°
3
Windvlaag: 4.4 m/s
63%
02:00
16°
1001.6 hPa
22%
15.8°
3
Windvlaag: 4.6 m/s
76%
03:00
16°
1001.0 hPa
28%
15.8°
3
Windvlaag: 5.4 m/s
87%
04:00
16°
1000.1 hPa
51%
15.9°
2
Windvlaag: 5.4 m/s
82%
05:00
16°
1000.0 hPa 9.4 mm
100%
15.5°
3
Windvlaag: 5.6 m/s
93%
06:00
16°
999.9 hPa 9.5 mm
100%
15.5°
3
Windvlaag: 6.4 m/s
96%
07:00
16°
999.6 hPa 5.9 mm
100%
14.0°
3
Windvlaag: 6.8 m/s
89%
08:00
17°
999.5 hPa 9.6 mm
100%
14.1°
4
Windvlaag: 7.2 m/s
87%
09:00
17°
996.9 hPa 9.5 mm
100%
14.2°
5
Windvlaag: 9.7 m/s
49%
10:00
18°
996.7 hPa 9.4 mm
87%
11.8°
5
Windvlaag: 9.3 m/s
95%
11:00
18°
996.6 hPa
39%
13.2°
5
Windvlaag: 9.4 m/s
64%
12:00
18°
996.3 hPa
40%
14.3°
5
Windvlaag: 9.5 m/s
54%
13:00
19°
996.1 hPa 9.5 mm
99%
12.6°
6
Windvlaag: 11.4 m/s
59% warningclass
14:00
19°
995.8 hPa
100%
11.0°
6
Windvlaag: 12 m/s
99%
Temp/Neerslag /Baro Onweer/Dauwpunt
    Temp Baro Neerslag Dauwpunt Wind Bewolking  
 04:54     21:43    Daglengte: 16:49 Vandaag
17:00
23°
1013.4 hPa   21.0°
3
78%
20:00
23°
1012.7 hPa   21.5°
3
85%
23:00
20°
1012.7 hPa   19.9°
3
66%
 04:56     21:41    Daglengte: 16:45 Morgen
02:00
19°
1012.2 hPa   19.1°
2
65%
05:00
18°
1011.3 hPa   17.7°
2
86%
08:00
18°
1010.4 hPa 13.4 mm 17.9°
3
85%
11:00
20°
1009.6 hPa 13.4 mm 19.2°
3
86% warningclass
14:00
22°
1008.5 hPa 16.1 mm 20.0°
3
82% warningclass
17:00
21°
1008.1 hPa 17.2 mm 20.0°
2
86% warningclass
20:00
21°
1007.4 hPa 5.6 mm 20.0°
1
37% warningclass
23:00
19°
1007.6 hPa   18.4°
1
28%
 04:58     21:39    Daglengte: 16:41 Woensdag 28 Jul
02:00
17°
1007.1 hPa   17.2°
2
52%
05:00
17°
1006.2 hPa   16.9°
2
62%
08:00
18°
1006.1 hPa   17.6°
3
57%
11:00
20°
1005.6 hPa 9.4 mm 15.8°
4
89%
14:00
21°
1004.6 hPa 28.5 mm 14.5°
4
65%
17:00
21°
1004.1 hPa 19.2 mm 14.4°
4
93%
20:00
19°
1002.9 hPa 18.5 mm 13.5°
3
50%
23:00
17°
1002.5 hPa   16.2°
2
79%
 05:00     21:36    Daglengte: 16:36 Donderdag 29 Jul
02:00
16°
1001.6 hPa   15.8°
3
76%
05:00
16°
1000.0 hPa 9.4 mm 15.5°
3
93%
08:00
17°
999.5 hPa 25.0 mm 14.1°
4
87%
11:00
18°
996.6 hPa 18.9 mm 13.2°
5
64%
14:00
19°
995.8 hPa 28.3 mm 11.0°
6
99%
17:00
16°
996.5 hPa 25.6 mm 13.4°
4
1%
20:00
14°
995.0 hPa 26.9 mm 12.8°
2
1%
23:00
11°
995.1 hPa 27.2 mm 10.5°
2
1%
 05:02     21:34    Daglengte: 16:32 Vrijdag 30 Jul
02:00
14°
993.4 hPa 30.3 mm 13.3°
5
1%
05:00
14°
992.7 hPa 31.2 mm 12.8°
5
1%
08:00
16°
992.6 hPa 31.2 mm 13.8°
4
1%
11:00
20°
993.0 hPa 31.2 mm 12.6°
6
0%
14:00
21°
994.1 hPa 31.4 mm 14.4°
6
0%
17:00
19°
995.2 hPa 31.6 mm 15.0°
5
1%
20:00
18°
995.8 hPa 31.7 mm 14.5°
3
1%
23:00
15°
997.1 hPa 31.7 mm 14.5°
3
0%
 05:04     21:32    Daglengte: 16:28 Zaterdag 31 Jul
02:00
15°
998.0 hPa 31.7 mm 12.9°
3
0%
05:00
14°
998.4 hPa 31.7 mm 10.8°
4
1%
08:00
17°
998.7 hPa 31.7 mm 11.6°
5
1%
11:00
19°
999.3 hPa 31.7 mm 10.5°
6
1%
14:00
20°
999.4 hPa 31.7 mm 9.8°
6
1%
17:00
19°
999.5 hPa 31.7 mm 9.9°
5
1%
20:00
17°
999.0 hPa 31.7 mm 11.5°
3
1%
23:00
12°
998.8 hPa 31.7 mm 11.4°
2
1%
 05:06     21:30    Daglengte: 16:24 Zondag 01 Aug
02:00
13°
997.8 hPa 31.7 mm 11.1°
2
1%
05:00
12°
997.1 hPa 31.7 mm 10.8°
2
1%
08:00
16°
996.8 hPa 31.7 mm 9.6°
4
1%
11:00
16°
997.5 hPa 31.8 mm 10.0°
4
1%
14:00
19°
997.3 hPa 31.9 mm 7.7°
6
1%
17:00
17°
997.8 hPa 32.2 mm 9.5°
6
1%
20:00
16°
997.5 hPa 32.3 mm 9.3°
5
1%
23:00
15°
996.8 hPa 32.3 mm 10.1°
5
0%
 05:08     21:27    Daglengte: 16:19 Maandag 02 Aug
02:00
14°
995.7 hPa 32.4 mm 11.9°
4
0%
05:00
12°
996.2 hPa 33.0 mm 12.1°
3
0%
08:00
14°
996.9 hPa 33.6 mm 13.0°
2
1%
11:00
17°
997.5 hPa 34.9 mm 12.9°
2
0%
14:00
18°
998.1 hPa 72.7 mm 13.7°
2
0%
20:00
15°
999.7 hPa 81.4 mm 11.6°
2
0%
 05:10     21:25    Daglengte: 16:15 Dinsdag 03 Aug
02:00
13°
1001.4 hPa 82.2 mm 6.9°
6
0%
08:00
14°
1003.2 hPa 82.3 mm 7.1°
6
0%
14:00
18°
1004.6 hPa 82.4 mm 6.8°
7
0%
20:00
15°
1005.6 hPa 82.8 mm 9.4°
6
0%
 05:12     21:23    Daglengte: 16:11 Woensdag 04 Aug
02:00
12°
1006.5 hPa 84.0 mm 11.4°
3
0%
08:00
15°
1005.8 hPa 85.8 mm 13.7°
4
1%
14:00
15°
1002.1 hPa 94.7 mm 14.3°
5
1%
20:00
16°
1000.0 hPa 107.9 mm 14.3°
5
1%
 05:15     21:20    Daglengte: 16:05 Donderdag 05 Aug
02:00
13°
998.5 hPa 112.7 mm 12.2°
4
1%
08:00
14°
995.9 hPa 116.3 mm 13.4°
5
1%
14:00
19°
1007.3 hPa 1.3 mm 12.2°
2
68%
20:00
17°
1006.8 hPa 1.2 mm 12.5°
1
65%
 05:17     21:18    Daglengte: 16:01 Vrijdag 06 Aug
02:00
13°
1007.0 hPa 0.4 mm 11.5°
1
63%
08:00
15°
1006.3 hPa 0.5 mm 12.1°
2
73%
14:00
20°
1005.5 hPa 1.3 mm 12.2°
1
72%
20:00
17°
1004.2 hPa 1.7 mm 12.4°
1
69%
 05:19     21:16    Daglengte: 15:57 Zaterdag 07 Aug
02:00
13°
1004.2 hPa 1.6 mm 11.5°
1
68%
08:00
15°
1004.0 hPa 0.7 mm 12.1°
1
74%
14:00
20°
1003.9 hPa 1.1 mm 12.1°
0
65%
20:00
17°
1003.5 hPa 1.3 mm 12.8°
0
65%
 05:21     21:13    Daglengte: 15:52 Zondag 08 Aug
02:00
14°
1003.9 hPa 0.7 mm 11.7°
1
64%
08:00
15°
1003.9 hPa 1.2 mm 12.6°
1
72%
14:00
19°
1004.1 hPa 1.7 mm 13.1°
1
72%
20:00
17°
1004.3 hPa 2.1 mm 12.7°
1
63%
 05:23     21:11    Daglengte: 15:48 Maandag 09 Aug
02:00
14°
1005.4 hPa 0.6 mm 11.7°
1
60%
08:00
15°
1005.9 hPa 0.4 mm 12.0°
1
61%
14:00
19°
1006.5 hPa 1.1 mm 12.4°
2
70%
20:00
17°
1006.6 hPa 1.1 mm 12.9°
1
68%
 05:25     21:08    Daglengte: 15:43 Dinsdag 10 Aug
02:00
13°
1007.6 hPa 0.5 mm 11.8°
2
59%
08:00
15°
1007.8 hPa 0.3 mm 12.3°
1
73%
14:00
19°
1008.6 hPa 1.2 mm 12.8°
2
74%
  CAPE Lifted Index Hail Supercell Tornado SRH 3km CL BTM PRES CL TOP PRES Swiss DWD icon SMHI TS
 04:54     21:43    Daglengte: 16:49 Vandaag
17:00 30 J/kg -1.5 K 0 % 0 % 0 % 0 m²/s² 0 0 -1.41 61
18:00 0 J/kg 1.1 K 0 % 0 % 0 % 0 m²/s² 0 0 1.46 3
19:00 1 J/kg 0.7 K 0 % 0 % 0 % 0 m²/s² 0 0 0.82 3
20:00 0 J/kg 0.6 K 0 % 0 % 0 % 0 m²/s² 0 0 0.9 3
21:00 0 J/kg 0.0 K 0 % 0 % 0 % 0 m²/s² 0 0 0.3 3
22:00 0 J/kg -0.2 K 0 % 0 % 0 % 0 m²/s² 0 0 0.34 3
23:00 117 J/kg -2.8 K 0 % 0 % 0 % 0 m²/s² 0 0 -1.84 3
 04:56     21:41    Daglengte: 16:45 Morgen
00:00 91 J/kg -2.0 K 0 % 0 % 0 % 0 m²/s² 0 0 -1.1 3
01:00 57 J/kg -1.9 K 0 % 0 % 0 % 0 m²/s² 0 0 -0.43 3
02:00 0 J/kg -0.9 K 0 % 0 % 0 % 0 m²/s² 0 0 0.36 3
03:00 0 J/kg 0.2 K 0 % 0 % 0 % 0 m²/s² 0 0 0.74 3
04:00 0 J/kg 0.1 K 0 % 0 % 0 % 0 m²/s² 0 0 0.28 3
05:00 0 J/kg 0.1 K 0 % 0 % 0 % 0 m²/s² 0 0 0.13 3
06:00 0 J/kg -1.3 K 0 % 0 % 0 % 0 m²/s² 0 0 -0.94 61
07:00 0 J/kg -1.5 K 0 % 0 % 0 % 0 m²/s² 0 0 -0.78 80
08:00 44 J/kg -1.9 K 0 % 0 % 0 % 0 m²/s² 0 0 -0.34 80
09:00 536 J/kg -2.1 K 0 % 0 % 0 % 0 m²/s² 0 0 -0.12 61
10:00 1121 J/kg -3.4 K 0 % 0 % 0 % 0 m²/s² 0 0 -1.48 61
11:00 1506 J/kg -4.5 K 0 % 0 % 0 % 0 m²/s² 0 0 -2.82 61
12:00 1511 J/kg -4.4 K 0 % 0 % 0 % 0 m²/s² 0 0 -2.78 95
13:00 1541 J/kg -4.6 K 0 % 0 % 0 % 0 m²/s² 0 0 -2.8 95
14:00 1655 J/kg -4.9 K 0 % 0 % 0 % 0 m²/s² 0 0 -3.1 95
15:00 1740 J/kg -5.0 K 0 % 0 % 0 % 0 m²/s² 0 0 -3.08 95
16:00 1569 J/kg -4.8 K 0 % 0 % 0 % 0 m²/s² 0 0 -3.42 95
17:00 1606 J/kg -4.9 K 0 % 0 % 0 % 0 m²/s² 0 0 -3.64 80
18:00 1611 J/kg -5.0 K 0 % 0 % 0 % 0 m²/s² 0 0 -3.44 95
19:00 1608 J/kg -4.8 K 0 % 0 % 0 % 0 m²/s² 0 0 -4.05 80
20:00 1490 J/kg -4.9 K 0 % 0 % 0 % 0 m²/s² 0 0 -3.85 80
21:00 1573 J/kg -5.0 K 0 % 0 % 0 % 0 m²/s² 0 0 -3.8 80
22:00 1089 J/kg -3.4 K 0 % 0 % 0 % 0 m²/s² 0 0 -1.9 80
23:00 776 J/kg -3.2 K 0 % 0 % 0 % 0 m²/s² 0 0 -2 80
 04:58     21:39    Daglengte: 16:41 Woensdag 28 Jul
00:00 783 J/kg -3.2 K 0 % 0 % 0 % 0 m²/s² 0 0 -2.15 80
01:00 763 J/kg -2.7 K 0 % 0 % 0 % 0 m²/s² 0 0 -1.44 2
02:00 632 J/kg -2.5 K 0 % 0 % 0 % 0 m²/s² 0 0 -0.34 2
03:00 699 J/kg -2.7 K 0 % 0 % 0 % 0 m²/s² 0 0 -0.75 2
04:00 710 J/kg -2.7 K 0 % 0 % 0 % 0 m²/s² 0 0 -0.48 3
05:00 413 J/kg -1.5 K 0 % 0 % 0 % 0 m²/s² 0 0 0.72 3
06:00 47 J/kg -0.6 K 0 % 0 % 0 % 0 m²/s² 0 0 1.56 3
07:00 8 J/kg 0.8 K 0 % 0 % 0 % 0 m²/s² 0 0 2.81 3
08:00 6 J/kg 1.9 K 0 % 0 % 0 % 0 m²/s² 0 0 3.91 2
09:00 6 J/kg 1.8 K 0 % 0 % 0 % 0 m²/s² 0 0 4.17 2
10:00 35 J/kg 0.9 K 0 % 0 % 0 % 0 m²/s² 0 0 3.72 2
11:00 27 J/kg 0.3 K 0 % 0 % 0 % 0 m²/s² 0 0 3.63 3
12:00 66 J/kg 0.2 K 0 % 0 % 0 % 0 m²/s² 0 0 3.8 2
13:00 51 J/kg 0.4 K 0 % 0 % 0 % 0 m²/s² 0 0 4.18 2
14:00 74 J/kg 0.1 K 0 % 0 % 0 % 0 m²/s² 0 0 3.16 3
15:00 67 J/kg 0.1 K 0 % 0 % 0 % 0 m²/s² 0 0 2.11 3
16:00 133 J/kg -0.4 K 0 % 0 % 0 % 0 m²/s² 0 0 1.25 3
17:00 297 J/kg -1.3 K 0 % 0 % 0 % 0 m²/s² 0 0 0.23 3
18:00 312 J/kg -1.5 K 0 % 0 % 0 % 0 m²/s² 0 0 -0.6 3
19:00 126 J/kg -0.8 K 0 % 0 % 0 % 0 m²/s² 0 0 -0.41 3
20:00 21 J/kg -0.1 K 0 % 0 % 0 % 0 m²/s² 0 0 0.41 3
21:00 139 J/kg -0.8 K 0 % 0 % 0 % 0 m²/s² 0 0 -0.11 3
22:00 306 J/kg -1.3 K 0 % 0 % 0 % 0 m²/s² 0 0 -0.7 3
23:00 266 J/kg -0.9 K 0 % 0 % 0 % 0 m²/s² 0 0 -0.48 3
 05:00     21:36    Daglengte: 16:36 Donderdag 29 Jul
00:00 181 J/kg -0.8 K 0 % 0 % 0 % 0 m²/s² 0 0 -0.29 3
01:00 201 J/kg -1.1 K 0 % 0 % 0 % 0 m²/s² 0 0 -0.53 3
02:00 253 J/kg -1.3 K 0 % 0 % 0 % 0 m²/s² 0 0 -0.73 3
03:00 296 J/kg -1.4 K 0 % 0 % 0 % 0 m²/s² 0 0 -0.98 3
04:00 285 J/kg -1.5 K 0 % 0 % 0 % 0 m²/s² 0 0 -0.48 3
05:00 570 J/kg -3.2 K 0 % 0 % 0 % 0 m²/s² 0 0 -1.16 3
06:00 560 J/kg -2.5 K 0 % 0 % 0 % 0 m²/s² 0 0 -0.7 80
07:00 287 J/kg -1.6 K 0 % 0 % 0 % 0 m²/s² 0 0 0.32 80
08:00 576 J/kg -2.9 K 0 % 0 % 0 % 0 m²/s² 0 0 -0.62 80
09:00 731 J/kg -3.2 K 0 % 0 % 0 % 0 m²/s² 0 0 1.06 80
10:00 396 J/kg -1.5 K 0 % 0 % 0 % 0 m²/s² 0 0 2.55 3
11:00 677 J/kg -3.2 K 0 % 0 % 0 % 0 m²/s² 0 0 -0.41 3
12:00 738 J/kg -4.1 K 0 % 0 % 0 % 0 m²/s² 0 0 -2.51 3
13:00 813 J/kg -4.6 K 0 % 0 % 0 % 0 m²/s² 0 0 -2.41 3
14:00 601 J/kg -3.1 K 0 % 0 % 0 % 0 m²/s² 0 0 -0.16 3
Temp Baro Wind Neerslag
  EWN Forecast EWN WRFDA DWD ICON FMI HIRLAM MET Norway GFS
 04:54     21:43    Daglengte: 16:49 Vandaag
17:00 22.6° 1013.4 hPa 2.9 m/s 0.0 mm 19.2° 1012.8 hPa 6.5 m/s 4.1 mm 24.0° 1013.9 hPa 2.6 m/s -1.4 mm 22.2° 1013.0 hPa 2.8 m/s 0.0 mm 20.1° 1013.8 hPa 6.2 m/s
20:00 22.5° 1012.7 hPa 2.9 m/s 0.0 mm 18.2° 1013.0 hPa 5.4 m/s 40.8 mm 23.6° 1012.7 hPa 3.4 m/s 0.0 mm 22.9° 1012.4 hPa 1.8 m/s 0.0 mm 17.6° 1014.0 hPa 4.6 m/s
23:00 20.5° 1012.7 hPa 2.6 m/s 0.0 mm 18.6° 1012.2 hPa 4.7 m/s 50.9 mm 21.4° 1012.7 hPa 2.8 m/s 0.0 mm 20.1° 1012.8 hPa 1.3 m/s 0.0 mm 16.7° 1012.9 hPa 1.9 m/s
 04:56     21:41    Daglengte: 16:45 Morgen
02:00 19.5° 1012.2 hPa 2.3 m/s 0.0 mm 17.5° 1011.4 hPa 4.3 m/s 53.2 mm 20.5° 1011.8 hPa 1.8 m/s 0.0 mm 18.8° 1012.2 hPa 1.9 m/s 0.0 mm 15.7° 1012.5 hPa 2.1 m/s
05:00 18.1° 1011.3 hPa 1.7 m/s 0.0 mm 17.4° 1010.5 hPa 2.0 m/s 54.1 mm 19.3° 1011.0 hPa 1.7 m/s 0.0 mm 17.2° 1011.4 hPa 1.7 m/s 0.0 mm 16.1° 1011.4 hPa 1.9 m/s
08:00 18.5° 1010.4 hPa 2.6 m/s 13.4 mm 18.2° 1009.1 hPa 4.2 m/s 59.4 mm 19.2° 1010.7 hPa 1.6 m/s 1.4 mm 17.8° 1010.3 hPa 2.4 m/s 0.0 mm 16.8° 1010.6 hPa 2.1 m/s
11:00 20.1° 1009.6 hPa 2.9 m/s 13.4 mm 22.5° 1008.0 hPa 2.3 m/s 64.2 mm 20.8° 1010.3 hPa 3.0 m/s 0.8 mm 20.0° 1009.5 hPa 2.7 m/s 0.0 mm 19.9° 1009.3 hPa 2.9 m/s
14:00 21.6° 1008.5 hPa 2.7 m/s 16.1 mm 24.3° 1007.1 hPa 1.2 m/s 66.6 mm 21.3° 1009.5 hPa 2.3 m/s 3.7 mm 22.1° 1008.1 hPa 2.9 m/s 0.0 mm 21.5° 1008.3 hPa 2.2 m/s
17:00 21.3° 1008.1 hPa 1.8 m/s 17.2 mm 24.3° 1006.3 hPa 0.6 m/s 70.0 mm 21.2° 1008.4 hPa 2.1 m/s 2.8 mm 21.6° 1007.7 hPa 1.9 m/s 0.0 mm 21.1° 1008.2 hPa 1.9 m/s
20:00 20.6° 1007.4 hPa 1.5 m/s 5.6 mm 21.1° 1006.2 hPa 1.6 m/s 75.1 mm 19.8° 1007.9 hPa 1.5 m/s 2.4 mm 20.8° 1007.2 hPa 1.9 m/s 0.0 mm 19.9° 1007.6 hPa 1.6 m/s
23:00 18.5° 1007.6 hPa 1.4 m/s 0.0 mm 19.3° 1006.6 hPa 2.4 m/s 79.7 mm 18.3° 1007.6 hPa 1.1 m/s 1.1 mm 18.4° 1007.7 hPa 1.1 m/s 0.0 mm 15.9° 1008.3 hPa 1.8 m/s
 04:58     21:39    Daglengte: 16:41 Woensdag 28 Jul
02:00 17.4° 1007.1 hPa 1.6 m/s 0.0 mm 18.8° 1005.6 hPa 1.8 m/s 81.1 mm 17.7° 1007.0 hPa 1.3 m/s 0.4 mm 16.8° 1007.4 hPa 1.5 m/s 0.0 mm 15.3° 1007.8 hPa 2.0 m/s
05:00 17.1° 1006.2 hPa 2.1 m/s 0.0 mm 18.0° 1004.8 hPa 3.2 m/s 82.2 mm 17.5° 1006.1 hPa 2.0 m/s 0.0 mm 16.2° 1007.0 hPa 1.5 m/s 0.0 mm 14.9° 1007.2 hPa 2.0 m/s
08:00 18.1° 1006.1 hPa 3.0 m/s 0.0 mm 16.5° 1004.9 hPa 3.6 m/s 82.2 mm 18.2° 1005.8 hPa 3.1 m/s 0.0 mm 18.1° 1006.9 hPa 1.6 m/s 0.0 mm 17.3° 1007.0 hPa 2.5 m/s
11:00 19.7° 1005.6 hPa 4.3 m/s 9.4 mm 19.9° 1003.9 hPa 4.9 m/s 82.3 mm 20.1° 1005.7 hPa 4.6 m/s 0.0 mm 22.2° 1006.2 hPa 3.3 m/s
14:00 21.2° 1004.6 hPa 4.2 m/s 28.5 mm 21.5° 1003.8 hPa 5.1 m/s 82.3 mm 22.0° 1004.4 hPa 4.4 m/s 0.0 mm 22.5° 1005.6 hPa 3.0 m/s
17:00 20.6° 1004.1 hPa 3.6 m/s 19.2 mm 21.6° 1003.1 hPa 5.0 m/s 82.3 mm 20.8° 1003.9 hPa 3.7 m/s 0.1 mm 22.8° 1004.8 hPa 3.7 m/s
20:00 19.2° 1002.9 hPa 3.3 m/s 18.5 mm 19.7° 1002.4 hPa 4.6 m/s 82.3 mm 19.2° 1002.5 hPa 3.3 m/s 0.0 mm 19.8° 1004.3 hPa 2.7 m/s
23:00 16.7° 1002.5 hPa 2.5 m/s 0.0 mm 15.4° 1002.3 hPa 2.6 m/s 82.3 mm 16.8° 1001.4 hPa 2.5 m/s 0.0 mm 15.2° 1003.9 hPa 2.1 m/s
 05:00     21:36    Daglengte: 16:36 Donderdag 29 Jul
02:00 16.3° 1001.6 hPa 2.6 m/s 0.0 mm 15.1° 1001.8 hPa 2.6 m/s 82.3 mm 16.4° 999.3 hPa 2.5 m/s 0.0 mm 15.7° 1002.7 hPa 3.5 m/s
05:00 16.1° 1000.0 hPa 2.8 m/s 9.4 mm 16.0° 1000.1 hPa 3.5 m/s 82.6 mm 16.1° 997.4 hPa 2.3 m/s 0.2 mm 13.7° 1001.8 hPa 2.7 m/s
08:00 16.6° 999.5 hPa 3.7 m/s 25.0 mm 17.6° 999.9 hPa 4.1 m/s 83.2 mm 15.9° 996.4 hPa 3.7 m/s 1.6 mm 16.9° 1000.3 hPa 3.8 m/s
11:00 18.2° 996.6 hPa 5.3 m/s 18.9 mm 19.3° 999.5 hPa 5.4 m/s 83.4 mm 17.9° 995.9 hPa 5.2 m/s 0.5 mm 13.7° 999.6 hPa 3.7 m/s
14:00 18.9° 995.8 hPa 6.1 m/s 28.3 mm 20.4° 997.7 hPa 7.4 m/s 84.3 mm 18.5° 995.3 hPa 5.7 m/s 0.3 mm 15.6° 997.9 hPa 4.6 m/s
17:00 15.5° 996.5 hPa 4.0 m/s 25.6 mm 15.5° 996.5 hPa 4.0 m/s 25.6 mm
20:00 14.1° 995.0 hPa 1.6 m/s 26.9 mm 14.1° 995.0 hPa 1.6 m/s 26.9 mm
23:00 11.0° 995.1 hPa 2.1 m/s 27.2 mm 11.0° 995.1 hPa 2.1 m/s 27.2 mm
 05:02     21:34    Daglengte: 16:32 Vrijdag 30 Jul
02:00 13.7° 993.4 hPa 4.9 m/s 30.3 mm 13.7° 993.4 hPa 4.9 m/s 30.3 mm
05:00 14.1° 992.7 hPa 5.3 m/s 31.2 mm 14.1° 992.7 hPa 5.3 m/s 31.2 mm
08:00 16.1° 992.6 hPa 4.1 m/s 31.2 mm 16.1° 992.6 hPa 4.1 m/s 31.2 mm
11:00 20.2° 993.0 hPa 5.9 m/s 31.2 mm 20.2° 993.0 hPa 5.9 m/s 31.2 mm
14:00 20.7° 994.1 hPa 5.6 m/s 31.4 mm 20.7° 994.1 hPa 5.6 m/s 31.3 mm
17:00 18.7° 995.2 hPa 5.0 m/s 31.6 mm 18.7° 995.2 hPa 5.0 m/s 31.6 mm
20:00 18.1° 995.8 hPa 3.2 m/s 31.7 mm 18.1° 995.8 hPa 3.2 m/s 31.7 mm
23:00 14.9° 997.1 hPa 3.0 m/s 31.7 mm 14.9° 997.1 hPa 3.0 m/s 31.7 mm
 05:04     21:32    Daglengte: 16:28 Zaterdag 31 Jul
02:00 14.7° 998.0 hPa 3.5 m/s 31.7 mm 14.7° 998.0 hPa 3.5 m/s 31.7 mm
05:00 14.0° 998.4 hPa 3.7 m/s 31.7 mm 14.0° 998.4 hPa 3.7 m/s 31.7 mm
08:00 16.9° 998.7 hPa 4.6 m/s 31.7 mm 16.9° 998.7 hPa 4.6 m/s 31.7 mm
11:00 18.8° 999.3 hPa 6.0 m/s 31.7 mm 18.8° 999.3 hPa 6.0 m/s 31.7 mm
14:00 19.9° 999.4 hPa 6.3 m/s 31.7 mm 19.9° 999.4 hPa 6.3 m/s 31.7 mm
17:00 19.4° 999.5 hPa 5.2 m/s 31.7 mm 19.4° 999.5 hPa 5.2 m/s 31.7 mm
20:00 16.9° 999.0 hPa 3.1 m/s 31.7 mm 16.9° 999.0 hPa 3.1 m/s 31.7 mm
23:00 12.0° 998.8 hPa 1.7 m/s 31.7 mm 12.0° 998.8 hPa 1.7 m/s 31.7 mm
 05:06     21:30    Daglengte: 16:24 Zondag 01 Aug
02:00 12.6° 997.8 hPa 1.7 m/s 31.7 mm 12.6° 997.8 hPa 1.7 m/s 31.7 mm
05:00 11.7° 997.1 hPa 2.0 m/s 31.7 mm 11.7° 997.1 hPa 2.0 m/s 31.7 mm
08:00 16.1° 996.8 hPa 3.6 m/s 31.7 mm 16.1° 996.8 hPa 3.6 m/s 31.7 mm
11:00 15.6° 997.5 hPa 3.9 m/s 31.8 mm 15.6° 997.5 hPa 3.9 m/s 31.8 mm
14:00 18.6° 997.3 hPa 5.7 m/s 31.9 mm 18.6° 997.3 hPa 5.7 m/s 31.9 mm
17:00 17.3° 997.8 hPa 5.8 m/s 32.2 mm 17.3° 997.8 hPa 5.8 m/s 32.2 mm
20:00 15.8° 997.5 hPa 5.3 m/s 32.3 mm 15.8° 997.5 hPa 5.3 m/s 32.3 mm
23:00 14.6° 996.8 hPa 4.7 m/s 32.3 mm 14.6° 996.8 hPa 4.7 m/s 32.3 mm
 05:08     21:27    Daglengte: 16:19 Maandag 02 Aug
02:00 13.8° 995.7 hPa 4.4 m/s 32.4 mm 13.8° 995.7 hPa 4.4 m/s 32.4 mm
05:00 12.4° 996.2 hPa 3.2 m/s 33.0 mm 12.4° 996.2 hPa 3.2 m/s 33.0 mm
08:00 14.5° 996.9 hPa 1.6 m/s 33.6 mm 14.5° 996.9 hPa 1.5 m/s 33.6 mm
11:00 17.3° 997.5 hPa 1.5 m/s 34.9 mm 17.3° 997.5 hPa 1.5 m/s 34.9 mm
14:00 17.9° 998.1 hPa 1.9 m/s 37.8 mm 17.9° 998.1 hPa 1.9 m/s 37.8 mm
20:00 14.8° 999.7 hPa 2.1 m/s 41.1 mm 14.8° 999.7 hPa 2.1 m/s 41.1 mm
 05:10     21:25    Daglengte: 16:15 Dinsdag 03 Aug
02:00 12.6° 1001.4 hPa 5.5 m/s 41.1 mm 12.6° 1001.4 hPa 5.5 m/s 41.1 mm
08:00 14.4° 1003.2 hPa 5.7 m/s 41.2 mm 14.4° 1003.2 hPa 5.7 m/s 41.2 mm
14:00 18.0° 1004.6 hPa 6.9 m/s 41.2 mm 18.0° 1004.6 hPa 6.9 m/s 41.2 mm
20:00 15.5° 1005.6 hPa 5.5 m/s 41.5 mm 15.5° 1005.6 hPa 5.5 m/s 41.5 mm
 05:12     21:23    Daglengte: 16:11 Woensdag 04 Aug
02:00 12.4° 1006.5 hPa 3.1 m/s 42.2 mm 12.4° 1006.5 hPa 3.1 m/s 42.2 mm
08:00 14.7° 1005.8 hPa 3.7 m/s 43.3 mm 14.7° 1005.8 hPa 3.7 m/s 43.3 mm
14:00 14.9° 1002.1 hPa 5.3 m/s 51.0 mm 14.9° 1002.1 hPa 5.3 m/s 51.0 mm
20:00 15.6° 1000.0 hPa 4.6 m/s 54.8 mm 15.6° 1000.0 hPa 4.6 m/s 54.8 mm
 05:15     21:20    Daglengte: 16:05 Donderdag 05 Aug
02:00 12.9° 998.5 hPa 3.8 m/s 56.8 mm 12.9° 998.5 hPa 3.8 m/s 56.8 mm
08:00 14.4° 995.9 hPa 5.2 m/s 58.9 mm 14.4° 995.9 hPa 5.2 m/s 58.9 mm
14:00 19.1° 1007.3 hPa 1.9 m/s 1.3 mm
20:00 16.9° 1006.8 hPa 1.0 m/s 1.2 mm
 05:17     21:18    Daglengte: 16:01 Vrijdag 06 Aug
02:00 13.1° 1007.0 hPa 0.9 m/s 0.4 mm
08:00 14.8° 1006.3 hPa 1.7 m/s 0.5 mm
14:00 19.6° 1005.5 hPa 1.1 m/s 1.3 mm
20:00 17.2° 1004.2 hPa 0.6 m/s 1.7 mm
 05:19     21:16    Daglengte: 15:57 Zaterdag 07 Aug
02:00 13.5° 1004.2 hPa 1.1 m/s 1.6 mm
08:00 14.9° 1004.0 hPa 0.7 m/s 0.7 mm
14:00 19.7° 1003.9 hPa 0.4 m/s 1.1 mm
20:00 17.3° 1003.5 hPa 0.2 m/s 1.3 mm
 05:21     21:13    Daglengte: 15:52 Zondag 08 Aug
02:00 13.9° 1003.9 hPa 0.9 m/s 0.7 mm
08:00 15.2° 1003.9 hPa 1.0 m/s 1.2 mm
14:00 19.3° 1004.1 hPa 1.2 m/s 1.7 mm
20:00 16.8° 1004.3 hPa 1.3 m/s 2.1 mm
 05:23     21:11    Daglengte: 15:48 Maandag 09 Aug
02:00 13.6° 1005.4 hPa 1.4 m/s 0.6 mm
08:00 14.9° 1005.9 hPa 1.3 m/s 0.4 mm
14:00 18.6° 1006.5 hPa 1.6 m/s 1.1 mm
20:00 16.6° 1006.6 hPa 1.3 m/s 1.1 mm
 05:25     21:08    Daglengte: 15:43 Dinsdag 10 Aug
02:00 13.4° 1007.6 hPa 1.6 m/s 0.5 mm
08:00 15.0° 1007.8 hPa 1.2 m/s 0.3 mm
14:00 18.5° 1008.6 hPa 1.8 m/s 1.2 mm
FMI Hirlam - 7.5 km EWN WRFDA - 12 km DWD ICON - 7 km GFS - 25 km Basiskaart